This demonstration page uses our WeatherBlox Daily Observations layout. Learn more.

Left ArrowRight Arrow

34.16533, -84.80231

Hourly Observations for March 10, 2022

Temp ( °F °C ) Dew Point ( °F °C ) Humidity (%) Winds ( mph kmh ) Pressure ( in mb ) Visibility ( mi km ) Precip ( " mm )
12:15 am 00:15 Clear 48 9 43 6 82 82 Calm 29.99 1016 10 16 0.00 0.00
12:35 am 00:35 Clear 48 9 43 6 82 82 NNW 3 6 30.00 1016 10 16 0.00 0.00
12:55 am 00:55 Clear 48 9 43 6 82 82 Calm 30.00 1016 10 16 0.00 0.00
1:35 am 01:35 Clear 46 8 43 6 87 87 Calm 29.99 1015 10 16 0.00 0.00
1:55 am 01:55 Clear 46 8 41 5 82 82 Calm 29.99 1015 10 16 0.00 0.00
2:15 am 02:15 Clear 46 8 41 5 82 82 Calm 29.99 1015 10 16 0.00 0.00
2:35 am 02:35 Clear 46 8 41 5 82 82 Calm 29.99 1015 10 16 0.00 0.00
2:55 am 02:55 Clear 45 7 41 5 87 87 Calm 29.99 1016 10 16 0.00 0.00
3:15 am 03:15 Clear 45 7 41 5 87 87 Calm 29.99 1016 10 16 0.00 0.00
3:35 am 03:35 Clear 45 7 41 5 87 87 Calm 29.98 1015 10 16 0.00 0.00
3:55 am 03:55 Clear 43 6 41 5 93 93 Calm 29.99 1016 10 16 0.00 0.00
4:15 am 04:15 Clear 43 6 41 5 93 93 Calm 29.99 1016 10 16 0.00 0.00
4:35 am 04:35 Clear 43 6 41 5 93 93 Calm 30.00 1016 10 16 0.00 0.00
4:55 am 04:55 Clear 41 5 41 5 100 100 Calm 30.00 1016 10 16 0.00 0.00
5:15 am 05:15 Clear 41 5 39 4 93 93 Calm 30.02 1017 10 16 0.00 0.00
5:35 am 05:35 Clear 41 5 39 4 93 93 Calm 30.02 1017 10 16 0.00 0.00
5:55 am 05:55 Clear 41 5 39 4 93 93 Calm 30.03 1017 10 16 0.00 0.00
6:35 am 06:35 Clear 41 5 39 4 93 93 Calm 30.03 1017 10 16 0.00 0.00
6:55 am 06:55 Clear 39 4 39 4 100 100 Calm 30.05 1018 10 16 0.00 0.00
7:15 am 07:15 Sunny 41 5 39 4 93 93 Calm 30.04 1017 10 16 0.00 0.00
7:35 am 07:35 Sunny 41 5 41 5 100 100 Calm 30.04 1017 10 16 0.00 0.00
7:55 am 07:55 Sunny 43 6 41 5 93 93 Calm 30.05 1018 10 16 0.00 0.00
8:15 am 08:15 Sunny 43 6 41 5 93 93 Calm 30.07 1018 10 16 0.00 0.00
8:35 am 08:35 Sunny 45 7 41 5 87 87 Calm 30.08 1019 10 16 0.00 0.00
8:55 am 08:55 Partly Cloudy 45 7 41 5 87 87 Calm 30.07 1018 10 16 0.00 0.00
9:15 am 09:15 Partly Cloudy 46 8 43 6 87 87 Calm 30.06 1018 10 16 0.00 0.00
9:35 am 09:35 Mostly Cloudy 46 8 43 6 87 87 Calm 30.09 1019 10 16 0.00 0.00
9:55 am 09:55 Mostly Cloudy 48 9 43 6 82 82 Calm 30.08 1019 10 16 0.00 0.00
10:15 am 10:15 Partly Cloudy 50 10 45 7 82 82 Calm 30.07 1018 10 16 0.00 0.00
10:35 am 10:35 Partly Cloudy 52 11 45 7 77 77 Calm 30.07 1018 10 16 0.00 0.00
10:55 am 10:55 Mostly Sunny 54 12 46 8 77 77 Calm 30.06 1018 10 16 0.00 0.00
11:15 am 11:15 Sunny 55 13 46 8 72 72 NNE 3 6 30.06 1018 10 16 0.00 0.00
11:35 am 11:35 Sunny 57 14 48 9 72 72 VRB 5 7 30.05 1018 10 16 0.00 0.00
11:55 am 11:55 Sunny 57 14 45 7 63 63 Calm 30.04 1017 10 16 0.00 0.00
12:15 pm 12:15 Sunny 61 16 41 5 48 48 W 3 6 30.03 1017 10 16 0.00 0.00
12:35 pm 12:35 Sunny 59 15 43 6 55 55 Calm 30.03 1017 10 16 0.00 0.00
12:55 pm 12:55 Sunny 61 16 41 5 48 48 Calm 30.01 1016 10 16 0.00 0.00
1:15 pm 13:15 Sunny 61 16 43 6 52 52 Calm 30.00 1016 10 16 0.00 0.00
1:35 pm 13:35 Sunny 61 16 43 6 52 52 Calm 29.99 1016 10 16 0.00 0.00
1:55 pm 13:55 Sunny 63 17 41 5 45 45 W 6 9 29.99 1016 10 16 0.00 0.00
2:15 pm 14:15 Sunny 64 18 43 6 46 46 VRB 3 6 29.98 1015 10 16 0.00 0.00
2:35 pm 14:35 Sunny 64 18 41 5 43 43 VRB 5 7 29.98 1015 10 16 0.00 0.00
2:55 pm 14:55 Sunny 63 17 41 5 45 45 NNE 5 7 29.97 1015 10 16 0.00 0.00
3:15 pm 15:15 Sunny 64 18 41 5 43 43 VRB 5 7 29.97 1015 10 16 0.00 0.00
3:35 pm 15:35 Sunny 64 18 41 5 43 43 VRB 5 7 29.97 1015 10 16 0.00 0.00
3:55 pm 15:55 Sunny 64 18 43 6 46 46 VRB 3 6 29.96 1014 10 16 0.00 0.00
4:15 pm 16:15 Sunny 64 18 43 6 46 46 VRB 3 6 29.96 1014 10 16 0.00 0.00
4:35 pm 16:35 Sunny 66 19 43 6 43 43 W 5 7 29.96 1014 10 16 0.00 0.00
4:55 pm 16:55 Sunny 66 19 41 5 40 40 VRB 5 7 29.96 1014 10 16 0.00 0.00
5:15 pm 17:15 Sunny 66 19 41 5 40 40 Calm 29.97 1015 10 16 0.00 0.00
5:35 pm 17:35 Sunny 66 19 41 5 40 40 W 5 7 29.97 1015 10 16 0.00 0.00
5:55 pm 17:55 Sunny 66 19 41 5 40 40 W 5 7 29.97 1015 10 16 0.00 0.00
6:15 pm 18:15 Sunny 64 18 39 4 40 40 Calm 29.98 1015 10 16 0.00 0.00
6:35 pm 18:35 Sunny 64 18 41 5 43 43 SSE 5 7 29.99 1015 10 16 0.00 0.00
6:55 pm 18:55 Clear 61 16 46 8 59 59 ESE 5 7 30.00 1016 10 16 0.00 0.00
7:15 pm 19:15 Clear 59 15 48 9 68 68 E 7 11 30.01 1016 10 16 0.00 0.00
7:35 pm 19:35 Mostly Cloudy 59 15 48 9 68 68 ESE 6 9 30.02 1016 10 16 0.00 0.00
7:55 pm 19:55 Mostly Cloudy 57 14 46 8 67 67 ESE 7 11 30.03 1017 10 16 0.00 0.00
8:15 pm 20:15 Clear 57 14 46 8 67 67 E 6 9 30.04 1017 10 16 0.00 0.00
8:35 pm 20:35 Mostly Clear 55 13 46 8 72 72 VRB 5 7 30.05 1018 10 16 0.00 0.00
8:55 pm 20:55 Mostly Clear 55 13 46 8 72 72 VRB 7 11 30.06 1018 10 16 0.00 0.00
9:15 pm 21:15 Partly Cloudy 54 12 46 8 77 77 E 6 9 30.06 1018 10 16 0.00 0.00
9:35 pm 21:35 Mostly Clear 52 11 46 8 82 82 E 6 9 30.08 1019 10 16 0.00 0.00
9:55 pm 21:55 Clear 52 11 46 8 82 82 E 8 13 30.09 1019 10 16 0.00 0.00
10:15 pm 22:15 Clear 52 11 46 8 82 82 E 6 9 30.09 1019 10 16 0.00 0.00
10:35 pm 22:35 Clear 52 11 46 8 82 82 ESE 7 11 30.10 1019 10 16 0.00 0.00
10:55 pm 22:55 Mostly Clear 50 10 46 8 88 88 ESE 12 19 30.10 1019 10 16 0.00 0.00
11:15 pm 23:15 Clear 50 10 45 7 82 82 E 6 9 30.10 1019 10 16 0.00 0.00
11:35 pm 23:35 Clear 48 9 45 7 87 87 E 7 11 30.09 1019 10 16 0.00 0.00
11:55 pm 23:55 Clear 48 9 45 7 87 87 E 8 13 30.09 1019 10 16 0.00 0.00

Powered by AerisWeather